Time,TemperatureF,DewpointF,PressureIn,WindDirection,WindDirectionDegrees,WindSpeedMPH,WindSpeedGustMPH,Humidity,HourlyPrecipIn,Conditions,Clouds,dailyrainin,SoftwareType,DateUTC
2013-05-07 00:00:00,55.9,54.2,29.94,NNE,17,0.0,2.0,94,0.00,,OVC003,0.00,VWS V14.00,2013-05-07 05:00:00,
2013-05-07 00:01:00,55.5,53.8,29.94,NNE,17,0.0,2.0,94,0.00,,CLR,0.00,VWS V14.00,2013-05-07 05:01:00,
2013-05-07 00:06:00,55.3,53.6,29.95,NNE,17,0.0,2.0,94,0.00,,CLR,0.00,VWS V14.00,2013-05-07 05:06:00,
2013-05-07 00:11:00,55.1,53.4,29.94,NNE,17,0.0,2.0,94,0.00,,CLR,0.00,VWS V14.00,2013-05-07 05:11:00,
2013-05-07 00:16:00,55.0,53.3,29.95,NNE,17,0.0,2.0,94,0.00,,CLR,0.00,VWS V14.00,2013-05-07 05:16:00,
2013-05-07 00:21:00,54.8,53.1,29.94,NNE,17,0.0,2.0,94,0.00,,CLR,0.00,VWS V14.00,2013-05-07 05:21:00,
2013-05-07 00:26:00,54.7,53.0,29.94,NNE,17,0.0,0.0,94,0.00,,CLR,0.00,VWS V14.00,2013-05-07 05:26:00,
2013-05-07 00:30:00,54.8,53.1,29.94,NNE,17,0.0,2.0,94,0.00,,OVC003,0.00,VWS V14.00,2013-05-07 05:30:00,
2013-05-07 00:31:00,54.5,52.8,29.94,NNE,17,0.0,1.0,94,0.00,,CLR,0.00,VWS V14.00,2013-05-07 05:31:00,
2013-05-07 00:36:00,54.4,52.7,29.94,NNE,17,0.0,1.0,94,0.00,,CLR,0.00,VWS V14.00,2013-05-07 05:36:00,
2013-05-07 00:41:00,54.4,53.0,29.94,NNE,17,0.0,1.0,95,0.00,,CLR,0.00,VWS V14.00,2013-05-07 05:41:00,
2013-05-07 00:45:00,54.2,52.8,29.94,NNE,17,0.0,1.0,95,0.00,,CLR,0.00,VWS V14.00,2013-05-07 05:45:00,
2013-05-07 00:50:00,54.0,52.3,29.94,NNE,17,0.0,1.0,94,0.00,,CLR,0.00,VWS V14.00,2013-05-07 05:50:00,
2013-05-07 00:55:00,53.9,52.2,29.94,NNE,17,0.0,1.0,94,0.00,,CLR,0.00,VWS V14.00,2013-05-07 05:55:00,
2013-05-07 01:00:00,53.8,52.4,29.94,NNE,17,0.0,1.0,95,0.00,,CLR,0.00,VWS V14.00,2013-05-07 06:00:00,
2013-05-07 01:05:00,53.8,52.4,29.94,NNE,17,0.0,1.0,95,0.00,,CLR,0.00,VWS V14.00,2013-05-07 06:05:00,
2013-05-07 01:10:00,53.9,52.5,29.94,NNE,17,0.0,1.0,95,0.00,,CLR,0.00,VWS V14.00,2013-05-07 06:10:00,
2013-05-07 01:15:00,53.8,52.4,29.94,NNE,17,0.0,1.0,95,0.00,,CLR,0.00,VWS V14.00,2013-05-07 06:15:00,
2013-05-07 01:20:00,53.7,52.3,29.94,NNE,17,0.0,1.0,95,0.00,,CLR,0.00,VWS V14.00,2013-05-07 06:20:00,
2013-05-07 01:25:00,53.6,52.2,29.94,NNE,17,0.0,0.0,95,0.00,,CLR,0.00,VWS V14.00,2013-05-07 06:25:00,
2013-05-07 01:30:00,53.5,52.1,29.94,NNE,17,0.0,0.0,95,0.00,,CLR,0.00,VWS V14.00,2013-05-07 06:30:00,
2013-05-07 01:35:00,53.3,51.9,29.94,NNE,17,0.0,1.0,95,0.00,,CLR,0.00,VWS V14.00,2013-05-07 06:35:00,
2013-05-07 01:40:00,53.3,51.9,29.94,NNE,17,0.0,1.0,95,0.00,,CLR,0.00,VWS V14.00,2013-05-07 06:40:00,
2013-05-07 01:45:00,53.2,51.8,29.94,NNE,17,0.0,1.0,95,0.00,,CLR,0.00,VWS V14.00,2013-05-07 06:45:00,
2013-05-07 01:50:00,53.0,51.6,29.94,NNE,17,0.0,1.0,95,0.00,,CLR,0.00,VWS V14.00,2013-05-07 06:50:00,
2013-05-07 01:55:00,52.9,51.5,29.93,NNE,17,0.0,0.0,95,0.00,,CLR,0.00,VWS V14.00,2013-05-07 06:55:00,
2013-05-07 02:00:00,52.8,51.4,29.93,NNE,17,0.0,0.0,95,0.00,,CLR,0.00,VWS V14.00,2013-05-07 07:00:00,
2013-05-07 02:05:00,52.7,51.3,29.93,NNE,17,0.0,0.0,95,0.00,,CLR,0.00,VWS V14.00,2013-05-07 07:05:00,
2013-05-07 02:10:00,52.5,51.1,29.93,NNE,17,0.0,0.0,95,0.00,,CLR,0.00,VWS V14.00,2013-05-07 07:10:00,
2013-05-07 02:15:00,52.4,51.0,29.93,NNE,17,0.0,0.0,95,0.00,,CLR,0.00,VWS V14.00,2013-05-07 07:15:00,
2013-05-07 02:20:00,52.2,50.8,29.93,NNE,17,0.0,2.0,95,0.00,,,0.00,VWS V14.00,2013-05-07 07:20:00,
2013-05-07 02:25:00,51.7,50.3,29.93,NNE,17,0.0,0.0,95,0.00,,,0.00,VWS V14.00,2013-05-07 07:25:00,
2013-05-07 02:30:00,51.7,50.3,29.94,NNE,17,0.0,1.0,95,0.00,,,0.00,VWS V14.00,2013-05-07 07:30:00,
2013-05-07 02:35:00,51.8,50.4,29.93,NNE,17,0.0,1.0,95,0.00,,,0.00,VWS V14.00,2013-05-07 07:35:00,
2013-05-07 02:40:00,51.7,50.6,29.93,NNE,17,0.0,1.0,96,0.00,,CLR,0.00,VWS V14.00,2013-05-07 07:40:00,
2013-05-07 02:45:00,51.4,50.3,29.93,NNE,17,1.0,2.0,96,0.00,,CLR,0.00,VWS V14.00,2013-05-07 07:45:00,
2013-05-07 02:50:00,51.4,50.0,29.93,NNE,17,0.0,2.0,95,0.00,,CLR,0.00,VWS V14.00,2013-05-07 07:50:00,
2013-05-07 02:55:00,51.4,50.0,29.93,NNE,17,0.0,0.0,95,0.00,,CLR,0.00,VWS V14.00,2013-05-07 07:55:00,
2013-05-07 03:00:00,51.4,50.3,29.93,NNE,17,0.0,0.0,96,0.00,,,0.00,VWS V14.00,2013-05-07 08:00:00,
2013-05-07 03:05:00,51.4,50.3,29.93,NNE,17,0.0,0.0,96,0.00,,,0.00,VWS V14.00,2013-05-07 08:05:00,
2013-05-07 03:10:00,51.5,50.4,29.94,NNE,17,0.0,0.0,96,0.00,,,0.00,VWS V14.00,2013-05-07 08:10:00,
2013-05-07 03:15:00,51.4,50.3,29.94,NNE,17,0.0,1.0,96,0.00,,,0.00,VWS V14.00,2013-05-07 08:15:00,
2013-05-07 03:20:00,51.4,50.3,29.94,NNE,17,0.0,1.0,96,0.00,,,0.00,VWS V14.00,2013-05-07 08:20:00,
2013-05-07 03:25:00,51.2,50.1,29.94,NNE,17,0.0,0.0,96,0.00,,,0.00,VWS V14.00,2013-05-07 08:25:00,
2013-05-07 03:30:00,51.2,50.1,29.95,NNE,17,0.0,0.0,96,0.00,,,0.00,VWS V14.00,2013-05-07 08:30:00,
2013-05-07 03:35:00,51.2,50.1,29.95,NNE,17,0.0,0.0,96,0.00,,,0.00,VWS V14.00,2013-05-07 08:35:00,
2013-05-07 03:40:00,51.3,50.2,29.95,NNE,17,0.0,0.0,96,0.00,,,0.00,VWS V14.00,2013-05-07 08:40:00,
2013-05-07 03:45:00,51.3,50.2,29.95,NNE,17,0.0,0.0,96,0.00,,,0.00,VWS V14.00,2013-05-07 08:45:00,
2013-05-07 03:50:00,51.5,50.4,29.95,NNE,17,0.0,3.0,96,0.00,,,0.00,VWS V14.00,2013-05-07 08:50:00,
2013-05-07 03:55:00,51.6,50.5,29.95,NNE,17,1.0,2.0,96,0.00,,,0.00,VWS V14.00,2013-05-07 08:55:00,
2013-05-07 04:00:00,51.9,50.8,29.95,NNE,17,0.0,3.0,96,0.00,,OVC095,0.00,VWS V14.00,2013-05-07 09:00:00,
2013-05-07 04:05:00,51.8,50.7,29.95,NNE,17,0.0,3.0,96,0.00,,OVC095,0.00,VWS V14.00,2013-05-07 09:05:00,
2013-05-07 04:10:00,51.9,50.8,29.95,NNE,17,0.0,3.0,96,0.00,,OVC095,0.00,VWS V14.00,2013-05-07 09:10:00,
2013-05-07 04:15:00,51.9,50.8,29.96,NNE,17,0.0,3.0,96,0.00,,OVC095,0.00,VWS V14.00,2013-05-07 09:15:00,
2013-05-07 04:20:00,52.1,51.0,29.96,NNE,17,0.0,3.0,96,0.00,,OVC095,0.00,VWS V14.00,2013-05-07 09:20:00,
2013-05-07 04:25:00,52.1,51.0,29.95,NNE,17,1.0,2.0,96,0.00,,OVC095,0.00,VWS V14.00,2013-05-07 09:25:00,
2013-05-07 04:30:00,52.2,51.1,29.95,NNE,17,0.0,2.0,96,0.00,,OVC095,0.00,VWS V14.00,2013-05-07 09:30:00,
2013-05-07 04:35:00,52.2,51.1,29.95,NNE,17,0.0,2.0,96,0.00,,OVC095,0.00,VWS V14.00,2013-05-07 09:35:00,
2013-05-07 04:40:00,52.4,51.3,29.95,NNE,17,0.0,3.0,96,0.00,,SCT095,0.00,VWS V14.00,2013-05-07 09:40:00,
2013-05-07 04:45:00,52.4,51.3,29.95,NNE,17,0.0,3.0,96,0.00,,SCT095,0.00,VWS V14.00,2013-05-07 09:45:00,
2013-05-07 04:50:00,52.6,51.5,29.95,NNE,17,0.0,3.0,96,0.00,,SCT095,0.00,VWS V14.00,2013-05-07 09:50:00,
2013-05-07 04:55:00,52.4,51.3,29.95,NNE,17,0.0,1.0,96,0.00,,SCT095,0.00,VWS V14.00,2013-05-07 09:55:00,
2013-05-07 05:00:00,52.3,51.2,29.96,NNE,17,0.0,1.0,96,0.00,,SCT095,0.00,VWS V14.00,2013-05-07 10:00:00,
2013-05-07 05:05:00,52.3,51.2,29.96,NNE,17,0.0,1.0,96,0.00,,SCT095,0.00,VWS V14.00,2013-05-07 10:05:00,
2013-05-07 05:10:00,52.1,51.0,29.96,NNE,17,0.0,1.0,96,0.00,,SCT095,0.00,VWS V14.00,2013-05-07 10:10:00,
2013-05-07 05:15:00,52.1,51.0,29.96,NNE,17,0.0,1.0,96,0.00,,SCT095,0.00,VWS V14.00,2013-05-07 10:15:00,
2013-05-07 05:20:00,52.2,51.1,29.96,NNE,17,0.0,1.0,96,0.00,,OVC095,0.00,VWS V14.00,2013-05-07 10:20:00,
2013-05-07 05:25:00,52.7,51.6,29.96,NNE,17,0.0,0.0,96,0.00,,OVC095,0.00,VWS V14.00,2013-05-07 10:25:00,
2013-05-07 05:30:00,52.8,51.7,29.96,NNE,17,0.0,0.0,96,0.00,,OVC095,0.00,VWS V14.00,2013-05-07 10:30:00,
2013-05-07 05:35:00,52.8,51.7,29.96,NNE,17,0.0,0.0,96,0.00,,OVC095,0.00,VWS V14.00,2013-05-07 10:35:00,
2013-05-07 05:40:00,52.7,51.6,29.96,NNE,17,0.0,0.0,96,0.00,,OVC095,0.00,VWS V14.00,2013-05-07 10:40:00,
2013-05-07 05:45:00,52.7,51.6,29.96,NNE,17,0.0,0.0,96,0.00,,OVC095,0.00,VWS V14.00,2013-05-07 10:45:00,
2013-05-07 05:50:00,52.8,51.7,29.96,NNE,17,0.0,0.0,96,0.00,,OVC095,0.00,VWS V14.00,2013-05-07 10:50:00,
2013-05-07 05:55:00,52.8,51.7,29.97,NNE,17,0.0,0.0,96,0.00,,OVC095,0.00,VWS V14.00,2013-05-07 10:55:00,
2013-05-07 06:00:00,52.8,51.7,29.97,NNE,17,0.0,0.0,96,0.00,,OVC095,0.00,VWS V14.00,2013-05-07 11:00:00,
2013-05-07 06:05:00,52.7,51.6,29.97,NNE,17,0.0,0.0,96,0.00,,OVC095,0.00,VWS V14.00,2013-05-07 11:05:00,
2013-05-07 06:10:00,52.7,51.6,29.97,NNE,17,0.0,0.0,96,0.00,,OVC095,0.00,VWS V14.00,2013-05-07 11:10:00,
2013-05-07 06:15:00,52.7,51.6,29.97,NNE,17,0.0,0.0,96,0.00,,OVC095,0.00,VWS V14.00,2013-05-07 11:15:00,
2013-05-07 06:20:00,52.8,51.7,29.97,NNE,17,0.0,0.0,96,0.00,,OVC095,0.00,VWS V14.00,2013-05-07 11:20:00,
2013-05-07 06:25:00,52.9,51.8,29.97,NNE,17,0.0,0.0,96,0.00,,OVC095,0.00,VWS V14.00,2013-05-07 11:25:00,
2013-05-07 06:30:00,52.9,51.8,29.97,NNE,17,0.0,0.0,96,0.00,,OVC095,0.00,VWS V14.00,2013-05-07 11:30:00,
2013-05-07 06:35:00,52.9,51.8,29.97,NNE,17,0.0,0.0,96,0.00,,OVC095,0.00,VWS V14.00,2013-05-07 11:35:00,
2013-05-07 06:40:00,53.0,51.9,29.98,NNE,17,0.0,0.0,96,0.00,,OVC095,0.00,VWS V14.00,2013-05-07 11:40:00,
2013-05-07 06:45:00,53.0,51.9,29.98,NNE,17,0.0,0.0,96,0.00,,OVC095,0.00,VWS V14.00,2013-05-07 11:45:00,
2013-05-07 06:50:00,53.1,52.0,29.98,NNE,17,0.0,0.0,96,0.00,,OVC095,0.00,VWS V14.00,2013-05-07 11:50:00,
2013-05-07 06:55:00,53.3,52.2,29.98,NNE,17,0.0,0.0,96,0.00,,OVC095,0.00,VWS V14.00,2013-05-07 11:55:00,
2013-05-07 07:00:00,53.5,52.4,29.99,NNE,17,0.0,1.0,96,0.00,,OVC095,0.00,VWS V14.00,2013-05-07 12:00:00,
2013-05-07 07:05:00,53.7,52.6,29.98,NNE,17,1.0,1.0,96,0.00,,OVC095,0.00,VWS V14.00,2013-05-07 12:05:00,
2013-05-07 07:10:00,53.9,52.8,29.98,NNE,17,0.0,1.0,96,0.00,,OVC095,0.00,VWS V14.00,2013-05-07 12:10:00,
2013-05-07 07:15:00,54.2,53.1,29.98,NNE,17,0.0,1.0,96,0.00,,OVC095,0.00,VWS V14.00,2013-05-07 12:15:00,
2013-05-07 07:20:00,54.5,53.7,29.99,NNE,17,0.0,1.0,97,0.00,,BKN095,0.00,VWS V14.00,2013-05-07 12:20:00,
2013-05-07 07:24:00,54.7,53.6,29.99,NNE,17,0.0,1.0,96,0.00,,BKN095,0.00,VWS V14.00,2013-05-07 12:24:00,
2013-05-07 07:29:00,54.9,54.1,29.99,NNE,17,0.0,1.0,97,0.00,,BKN095,0.00,VWS V14.00,2013-05-07 12:29:00,
2013-05-07 07:30:00,54.5,53.7,29.99,NNE,17,0.0,1.0,97,0.00,,OVC003,0.00,VWS V14.00,2013-05-07 12:30:00,
2013-05-07 07:34:00,55.2,54.1,29.99,NNE,17,0.0,1.0,96,0.00,,BKN095,0.00,VWS V14.00,2013-05-07 12:34:00,
2013-05-07 07:39:00,55.5,54.4,29.99,NNE,17,0.0,1.0,96,0.00,,BKN110,0.00,VWS V14.00,2013-05-07 12:39:00,
2013-05-07 07:44:00,55.9,54.8,29.99,NNE,17,0.0,1.0,96,0.00,,BKN110,0.00,VWS V14.00,2013-05-07 12:44:00,
2013-05-07 07:49:00,56.1,55.0,29.99,NNE,17,0.0,1.0,96,0.00,,BKN110,0.00,VWS V14.00,2013-05-07 12:49:00,
2013-05-07 07:54:00,56.3,55.5,29.99,NNE,17,0.0,0.0,97,0.00,,BKN110,0.00,VWS V14.00,2013-05-07 12:54:00,
2013-05-07 07:59:00,56.6,55.5,29.99,NNE,17,1.0,3.0,96,0.00,,BKN110,0.00,VWS V14.00,2013-05-07 12:59:00,
2013-05-07 08:00:00,56.2,55.1,29.99,NNE,17,0.0,1.0,96,0.00,,OVC003,0.00,VWS V14.00,2013-05-07 13:00:00,
2013-05-07 08:04:00,56.8,56.0,30.00,NNE,17,1.0,3.0,97,0.00,,BKN110,0.00,VWS V14.00,2013-05-07 13:04:00,
2013-05-07 08:09:00,56.9,56.1,30.00,NNE,17,3.0,5.0,97,0.00,,BKN110,0.00,VWS V14.00,2013-05-07 13:09:00,
2013-05-07 08:14:00,57.1,56.3,30.00,NNE,17,3.0,5.0,97,0.00,,BKN110,0.00,VWS V14.00,2013-05-07 13:14:00,
2013-05-07 08:19:00,57.3,56.2,30.00,NNE,19,1.0,5.0,96,0.00,,BKN110,0.00,VWS V14.00,2013-05-07 13:19:00,
2013-05-07 08:24:00,57.4,56.6,30.00,North,9,3.0,4.0,97,0.00,,BKN110,0.00,VWS V14.00,2013-05-07 13:24:00,
2013-05-07 08:29:00,57.6,56.8,30.00,North,9,3.0,5.0,97,0.00,,BKN110,0.00,VWS V14.00,2013-05-07 13:29:00,
2013-05-07 08:30:00,57.3,56.2,30.00,NNE,19,3.0,5.0,96,0.00,,OVC003,0.00,VWS V14.00,2013-05-07 13:30:00,
2013-05-07 08:34:00,57.7,56.9,30.00,NNE,13,2.0,5.0,97,0.00,,BKN110,0.00,VWS V14.00,2013-05-07 13:34:00,
2013-05-07 08:39:00,57.9,56.8,30.00,NNE,13,0.0,5.0,96,0.00,,BKN100,0.00,VWS V14.00,2013-05-07 13:39:00,
2013-05-07 08:44:00,58.1,57.3,30.00,NNE,17,3.0,5.0,97,0.00,,BKN100,0.00,VWS V14.00,2013-05-07 13:44:00,
2013-05-07 08:49:00,58.4,57.3,30.00,NNE,22,2.0,6.0,96,0.00,,BKN100,0.00,VWS V14.00,2013-05-07 13:49:00,
2013-05-07 08:54:00,58.8,57.7,30.00,NNE,22,2.0,5.0,96,0.00,,BKN100,0.00,VWS V14.00,2013-05-07 13:54:00,
2013-05-07 08:59:00,59.2,57.8,30.01,NNE,22,2.0,5.0,95,0.00,,BKN100,0.00,VWS V14.00,2013-05-07 13:59:00,
2013-05-07 09:00:00,58.5,57.4,30.00,NNE,22,3.0,6.0,96,0.00,,OVC003,0.00,VWS V14.00,2013-05-07 14:00:00,
2013-05-07 09:04:00,59.7,57.7,30.01,NE,46,2.0,7.0,93,0.00,,SCT120,0.00,VWS V14.00,2013-05-07 14:04:00,
2013-05-07 09:09:00,60.1,57.8,30.01,NE,46,2.0,7.0,92,0.00,,SCT120,0.00,VWS V14.00,2013-05-07 14:09:00,
2013-05-07 09:14:00,60.5,57.6,30.01,NE,47,3.0,7.0,90,0.00,,SCT120,0.00,VWS V14.00,2013-05-07 14:14:00,
2013-05-07 09:19:00,61.0,57.7,30.01,NE,38,3.0,7.0,89,0.00,,SCT110,0.00,VWS V14.00,2013-05-07 14:19:00,
2013-05-07 09:24:00,61.3,58.0,30.01,NE,38,3.0,4.0,89,0.00,,SCT110,0.00,VWS V14.00,2013-05-07 14:24:00,
2013-05-07 09:29:00,61.6,58.0,30.00,NE,39,1.0,5.0,88,0.00,,SCT110,0.00,VWS V14.00,2013-05-07 14:29:00,
2013-05-07 09:30:00,61.1,57.8,30.01,NE,38,1.0,7.0,89,0.00,,OVC003,0.00,VWS V14.00,2013-05-07 14:30:00,
2013-05-07 09:34:00,61.9,58.0,30.00,NE,39,0.0,5.0,87,0.00,,SCT110,0.00,VWS V14.00,2013-05-07 14:34:00,
2013-05-07 09:39:00,62.2,58.3,30.01,NE,42,1.0,5.0,87,0.00,,SCT110,0.00,VWS V14.00,2013-05-07 14:39:00,
2013-05-07 09:44:00,62.3,57.4,30.01,ENE,63,4.0,5.0,84,0.00,,SCT110,0.00,VWS V14.00,2013-05-07 14:44:00,
2013-05-07 09:49:00,62.6,58.4,30.01,NE,37,3.0,6.0,86,0.00,,SCT110,0.00,VWS V14.00,2013-05-07 14:49:00,
2013-05-07 09:54:00,62.8,58.2,30.00,ENE,67,1.0,5.0,85,0.00,,SCT110,0.00,VWS V14.00,2013-05-07 14:54:00,
2013-05-07 09:59:00,63.0,58.1,30.00,ENE,66,3.0,5.0,84,0.00,,SCT110,0.00,VWS V14.00,2013-05-07 14:59:00,
2013-05-07 10:00:00,62.6,57.7,30.01,ENE,70,4.0,6.0,84,0.00,,OVC003,0.00,VWS V14.00,2013-05-07 15:00:00,
2013-05-07 10:04:00,63.2,58.0,30.00,NE,50,4.0,6.0,83,0.00,,SCT110,0.00,VWS V14.00,2013-05-07 15:04:00,
2013-05-07 10:09:00,63.5,58.2,30.00,NE,40,4.0,6.0,83,0.00,,SCT110,0.00,VWS V14.00,2013-05-07 15:09:00,
2013-05-07 10:14:00,63.8,58.5,30.00,NE,40,0.0,6.0,83,0.00,,SCT110,0.00,VWS V14.00,2013-05-07 15:14:00,
2013-05-07 10:19:00,64.2,58.6,30.00,NNE,28,2.0,6.0,82,0.00,,SCT110,0.00,VWS V14.00,2013-05-07 15:19:00,
2013-05-07 10:24:00,64.6,59.0,30.00,NE,43,3.0,6.0,82,0.00,,SCT110,0.00,VWS V14.00,2013-05-07 15:24:00,
2013-05-07 10:29:00,65.0,58.7,30.00,NE,38,1.0,6.0,80,0.00,,SCT110,0.00,VWS V14.00,2013-05-07 15:29:00,
2013-05-07 10:30:00,64.4,58.8,30.00,NNE,28,4.0,6.0,82,0.00,,OVC003,0.00,VWS V14.00,2013-05-07 15:30:00,
2013-05-07 10:34:00,65.2,58.5,30.00,East,81,0.0,6.0,79,0.00,,SCT110,0.00,VWS V14.00,2013-05-07 15:34:00,
2013-05-07 10:39:00,65.6,58.9,30.00,ENE,69,1.0,6.0,79,0.00,,SCT110,0.00,VWS V14.00,2013-05-07 15:39:00,
2013-05-07 10:44:00,65.7,59.0,30.00,NE,45,2.0,6.0,79,0.00,,SCT110,0.00,VWS V14.00,2013-05-07 15:44:00,
2013-05-07 10:49:00,65.8,58.8,30.00,East,90,5.0,7.0,78,0.00,,SCT110,0.00,VWS V14.00,2013-05-07 15:49:00,
2013-05-07 10:54:00,65.9,59.9,30.00,NE,35,3.0,5.0,81,0.00,,SCT110,0.00,VWS V14.00,2013-05-07 15:54:00,
2013-05-07 10:59:00,66.3,60.0,30.00,NNE,32,3.0,7.0,80,0.00,,SCT110,0.00,VWS V14.00,2013-05-07 15:59:00,
2013-05-07 11:00:00,65.8,58.8,30.00,East,98,1.0,7.0,78,0.00,,OVC003,0.00,VWS V14.00,2013-05-07 16:00:00,
2013-05-07 11:04:00,66.5,59.1,30.00,NE,35,5.0,7.0,77,0.00,,SCT110,0.00,VWS V14.00,2013-05-07 16:04:00,
2013-05-07 11:09:00,66.6,59.2,30.00,NNE,33,4.0,7.0,77,0.00,,SCT110,0.00,VWS V14.00,2013-05-07 16:09:00,
2013-05-07 11:14:00,66.8,60.1,30.00,NNE,33,3.0,7.0,79,0.00,,SCT110,0.00,VWS V14.00,2013-05-07 16:14:00,
2013-05-07 11:19:00,67.0,58.8,30.00,NE,38,5.0,7.0,75,0.00,,SCT110,0.00,VWS V14.00,2013-05-07 16:19:00,
2013-05-07 11:24:00,67.0,58.8,30.00,NE,38,3.0,6.0,75,0.00,,SCT110,0.00,VWS V14.00,2013-05-07 16:24:00,
2013-05-07 11:29:00,67.1,59.3,30.00,NNE,29,6.0,8.0,76,0.00,,SCT110,0.00,VWS V14.00,2013-05-07 16:29:00,
2013-05-07 11:30:00,67.0,59.2,30.00,NE,38,5.0,7.0,76,0.00,,OVC003,0.00,VWS V14.00,2013-05-07 16:30:00,
2013-05-07 11:34:00,67.3,58.4,30.00,NNE,27,5.0,8.0,73,0.00,,SCT110,0.00,VWS V14.00,2013-05-07 16:34:00,
2013-05-07 11:39:00,67.5,59.3,30.00,NNE,30,3.0,8.0,75,0.00,,CLR,0.00,VWS V14.00,2013-05-07 16:39:00,
2013-05-07 11:44:00,67.9,58.2,30.00,NE,46,5.0,8.0,71,0.00,,CLR,0.00,VWS V14.00,2013-05-07 16:44:00,
2013-05-07 11:49:00,68.1,58.0,30.00,NNE,32,2.0,8.0,70,0.00,,CLR,0.00,VWS V14.00,2013-05-07 16:49:00,
2013-05-07 11:54:00,68.4,60.9,29.99,North,5,4.0,5.0,77,0.00,,CLR,0.00,VWS V14.00,2013-05-07 16:54:00,
2013-05-07 11:59:00,68.9,59.5,29.99,NW,319,0.0,5.0,72,0.00,,CLR,0.00,VWS V14.00,2013-05-07 16:59:00,
2013-05-07 12:00:00,68.1,58.0,30.00,NNE,32,0.0,8.0,70,0.00,,OVC003,0.00,VWS V14.00,2013-05-07 17:00:00,
2013-05-07 12:04:00,69.5,58.5,29.99,NE,42,1.0,6.0,68,0.00,,CLR,0.00,VWS V14.00,2013-05-07 17:04:00,
2013-05-07 12:09:00,69.9,59.7,29.99,NE,47,2.0,6.0,70,0.00,,CLR,0.00,VWS V14.00,2013-05-07 17:09:00,
2013-05-07 12:14:00,70.5,60.3,29.99,North,9,3.0,6.0,70,0.00,,CLR,0.00,VWS V14.00,2013-05-07 17:14:00,
2013-05-07 12:19:00,70.6,58.3,29.99,North,10,2.0,6.0,65,0.00,,SCT033,0.00,VWS V14.00,2013-05-07 17:19:00,
2013-05-07 12:24:00,70.7,59.2,29.99,NNW,331,2.0,5.0,67,0.00,,SCT033,0.00,VWS V14.00,2013-05-07 17:24:00,
2013-05-07 12:29:00,70.9,59.8,29.99,WNW,284,5.0,10.0,68,0.00,,SCT033,0.00,VWS V14.00,2013-05-07 17:29:00,
2013-05-07 12:30:00,70.6,58.3,29.99,North,10,3.0,6.0,65,0.00,,OVC003,0.00,VWS V14.00,2013-05-07 17:30:00,
2013-05-07 12:34:00,71.0,58.2,29.99,North,5,5.0,10.0,64,0.00,,SCT033,0.00,VWS V14.00,2013-05-07 17:34:00,
2013-05-07 12:39:00,71.2,59.3,29.99,NNW,346,3.0,10.0,66,0.00,,CLR,0.00,VWS V14.00,2013-05-07 17:39:00,
2013-05-07 12:44:00,71.5,57.4,29.98,NE,40,6.0,11.0,61,0.00,,CLR,0.00,VWS V14.00,2013-05-07 17:44:00,
2013-05-07 12:49:00,71.8,60.3,29.98,North,355,6.0,11.0,67,0.00,,CLR,0.00,VWS V14.00,2013-05-07 17:49:00,
2013-05-07 12:54:00,72.0,58.3,29.98,NE,49,5.0,12.0,62,0.00,,CLR,0.00,VWS V14.00,2013-05-07 17:54:00,
2013-05-07 12:59:00,72.1,58.4,29.98,ENE,70,7.0,14.0,62,0.00,,CLR,0.00,VWS V14.00,2013-05-07 17:59:00,
2013-05-07 13:00:00,71.9,57.7,29.99,North,349,4.0,11.0,61,0.00,,OVC003,0.00,VWS V14.00,2013-05-07 18:00:00,
2013-05-07 13:04:00,72.2,58.5,29.98,ENE,57,6.0,14.0,62,0.00,,CLR,0.00,VWS V14.00,2013-05-07 18:04:00,
2013-05-07 13:09:00,72.5,58.3,29.98,NE,42,4.0,14.0,61,0.00,,CLR,0.00,VWS V14.00,2013-05-07 18:09:00,
2013-05-07 13:14:00,72.8,61.2,29.98,NE,34,1.0,14.0,67,0.00,,CLR,0.00,VWS V14.00,2013-05-07 18:14:00,
2013-05-07 13:18:00,73.1,60.2,29.98,West,275,8.0,14.0,64,0.00,,CLR,0.00,VWS V14.00,2013-05-07 18:18:00,
2013-05-07 13:23:00,72.9,59.1,29.97,NW,326,0.0,5.0,62,0.00,,CLR,0.00,VWS V14.00,2013-05-07 18:23:00,
2013-05-07 13:28:00,72.7,58.5,29.98,NNW,343,1.0,8.0,61,0.00,,CLR,0.00,VWS V14.00,2013-05-07 18:28:00,
2013-05-07 13:30:00,72.8,59.9,29.98,NNE,22,5.0,14.0,64,0.00,,OVC003,0.00,VWS V14.00,2013-05-07 18:30:00,
2013-05-07 13:33:00,72.8,60.4,29.97,NW,324,4.0,8.0,65,0.00,,CLR,0.00,VWS V14.00,2013-05-07 18:33:00,
2013-05-07 13:38:00,73.0,59.7,29.97,NNE,18,5.0,8.0,63,0.00,,CLR,0.00,VWS V14.00,2013-05-07 18:38:00,
2013-05-07 13:43:00,72.6,58.4,29.97,NE,37,8.0,15.0,61,0.00,,CLR,0.00,VWS V14.00,2013-05-07 18:43:00,
2013-05-07 13:48:00,72.8,59.0,29.97,NNE,13,4.0,8.0,62,0.00,,CLR,0.00,VWS V14.00,2013-05-07 18:48:00,
2013-05-07 13:53:00,73.5,60.6,29.97,North,11,1.0,5.0,64,0.00,,CLR,0.00,VWS V14.00,2013-05-07 18:53:00,
2013-05-07 13:58:00,73.6,57.0,29.97,East,87,3.0,11.0,56,0.00,,CLR,0.00,VWS V14.00,2013-05-07 18:58:00,
2013-05-07 14:00:00,73.1,57.9,29.97,North,9,3.0,10.0,59,0.00,,OVC003,0.00,VWS V14.00,2013-05-07 19:00:00,
2013-05-07 14:03:00,73.3,59.0,29.97,North,355,5.0,11.0,61,0.00,,CLR,0.00,VWS V14.00,2013-05-07 19:03:00,
2013-05-07 14:08:00,73.1,59.8,29.96,NE,34,4.0,11.0,63,0.00,,CLR,0.00,VWS V14.00,2013-05-07 19:08:00,
2013-05-07 14:13:00,73.4,59.2,29.96,North,5,2.0,11.0,61,0.00,,CLR,0.00,VWS V14.00,2013-05-07 19:13:00,
2013-05-07 14:18:00,73.9,60.1,29.96,North,355,6.0,11.0,62,0.00,,SCT110,0.00,VWS V14.00,2013-05-07 19:18:00,
2013-05-07 14:23:00,74.4,58.7,29.96,North,9,5.0,10.0,58,0.00,,SCT110,0.00,VWS V14.00,2013-05-07 19:23:00,
2013-05-07 14:28:00,74.5,57.3,29.96,North,355,4.0,10.0,55,0.00,,SCT110,0.00,VWS V14.00,2013-05-07 19:28:00,
2013-05-07 14:30:00,74.2,58.5,29.96,NNE,33,7.0,11.0,58,0.00,,OVC003,0.00,VWS V14.00,2013-05-07 19:30:00,
2013-05-07 14:33:00,74.3,59.1,29.96,North,350,1.0,11.0,59,0.00,,SCT110,0.00,VWS V14.00,2013-05-07 19:33:00,
2013-05-07 14:38:00,74.0,56.3,29.96,NNW,336,4.0,11.0,54,0.00,,SCT110,0.00,VWS V14.00,2013-05-07 19:38:00,
2013-05-07 14:43:00,74.1,57.4,29.96,NNW,340,0.0,11.0,56,0.00,,SCT050,0.00,VWS V14.00,2013-05-07 19:43:00,
2013-05-07 14:48:00,74.0,58.3,29.95,NNE,18,5.0,11.0,58,0.00,,SCT050,0.00,VWS V14.00,2013-05-07 19:48:00,
2013-05-07 14:53:00,74.2,58.0,29.95,NNW,331,7.0,7.0,57,0.00,,SCT050,0.00,VWS V14.00,2013-05-07 19:53:00,
2013-05-07 14:58:00,74.1,57.4,29.95,NNW,333,4.0,4.0,56,0.00,,SCT060,0.00,VWS V14.00,2013-05-07 19:58:00,
2013-05-07 15:00:00,74.1,56.9,29.95,NE,52,4.0,11.0,55,0.00,,OVC003,0.00,VWS V14.00,2013-05-07 20:00:00,
2013-05-07 15:03:00,74.4,57.2,29.95,NNE,26,3.0,7.0,55,0.00,,SCT060,0.00,VWS V14.00,2013-05-07 20:03:00,
2013-05-07 15:08:00,74.8,59.5,29.95,NE,36,5.0,7.0,59,0.00,,SCT060,0.00,VWS V14.00,2013-05-07 20:08:00,
2013-05-07 15:13:00,75.1,58.3,29.94,NW,313,4.0,11.0,56,0.00,,SCT060,0.00,VWS V14.00,2013-05-07 20:13:00,
2013-05-07 15:18:00,75.1,57.8,29.95,NNW,348,5.0,11.0,55,0.00,,SCT049,0.00,VWS V14.00,2013-05-07 20:18:00,
2013-05-07 15:23:00,75.3,56.5,29.94,NE,46,7.0,9.0,52,0.00,,SCT049,0.00,VWS V14.00,2013-05-07 20:23:00,
2013-05-07 15:28:00,75.3,57.0,29.94,NE,40,6.0,12.0,53,0.00,,SCT049,0.00,VWS V14.00,2013-05-07 20:28:00,
2013-05-07 15:30:00,75.3,57.5,29.94,North,5,3.0,11.0,54,0.00,,OVC003,0.00,VWS V14.00,2013-05-07 20:30:00,
2013-05-07 15:33:00,74.9,57.2,29.94,NE,43,4.0,12.0,54,0.00,,SCT049,0.00,VWS V14.00,2013-05-07 20:33:00,
2013-05-07 15:38:00,74.8,57.1,29.94,NE,35,6.0,12.0,54,0.00,,SCT049,0.00,VWS V14.00,2013-05-07 20:38:00,
2013-05-07 15:43:00,74.2,56.5,29.94,North,5,3.0,12.0,54,0.00,,SCT049,0.00,VWS V14.00,2013-05-07 20:43:00,
2013-05-07 15:48:00,73.7,57.0,29.94,NE,35,2.0,12.0,56,0.00,,SCT049,0.00,VWS V14.00,2013-05-07 20:48:00,
2013-05-07 15:53:00,73.3,57.7,29.94,NE,53,4.0,4.0,58,0.00,,SCT049,0.00,VWS V14.00,2013-05-07 20:53:00,
2013-05-07 15:58:00,72.8,56.7,29.94,NE,51,5.0,7.0,57,0.00,,BKN060,0.00,VWS V14.00,2013-05-07 20:58:00,
2013-05-07 16:00:00,73.5,56.9,29.94,NE,55,4.0,12.0,56,0.00,,OVC003,0.00,VWS V14.00,2013-05-07 21:00:00,
2013-05-07 16:03:00,72.3,58.6,29.94,NE,43,4.0,7.0,62,0.00,,BKN060,0.00,VWS V14.00,2013-05-07 21:03:00,
2013-05-07 16:08:00,71.8,59.0,29.94,NNE,32,1.0,7.0,64,0.00,,BKN060,0.00,VWS V14.00,2013-05-07 21:08:00,
2013-05-07 16:13:00,71.5,58.3,29.94,NE,34,1.0,7.0,63,0.00,,BKN060,0.00,VWS V14.00,2013-05-07 21:13:00,
2013-05-07 16:18:00,71.3,58.9,29.93,NE,34,1.0,7.0,65,0.00,,OVC080,0.00,VWS V14.00,2013-05-07 21:18:00,
2013-05-07 16:23:00,71.3,58.5,29.93,NE,34,0.0,1.0,64,0.00,,OVC080,0.00,VWS V14.00,2013-05-07 21:23:00,
2013-05-07 16:28:00,71.3,58.5,29.93,NE,34,1.0,3.0,64,0.00,,OVC080,0.00,VWS V14.00,2013-05-07 21:28:00,
2013-05-07 16:30:00,71.3,58.9,29.93,NE,34,1.0,7.0,65,0.00,,OVC003,0.00,VWS V14.00,2013-05-07 21:30:00,
2013-05-07 16:33:00,71.5,59.1,29.93,NE,34,0.0,3.0,65,0.00,,OVC080,0.00,VWS V14.00,2013-05-07 21:33:00,
2013-05-07 16:38:00,71.7,57.5,29.93,NE,34,2.0,3.0,61,0.00,,OVC080,0.00,VWS V14.00,2013-05-07 21:38:00,
2013-05-07 16:43:00,71.9,59.9,29.93,NE,34,0.0,3.0,66,0.00,,OVC090,0.00,VWS V14.00,2013-05-07 21:43:00,
2013-05-07 16:48:00,72.0,59.6,29.93,NE,34,0.0,3.0,65,0.00,,OVC090,0.00,VWS V14.00,2013-05-07 21:48:00,
2013-05-07 16:53:00,72.0,60.5,29.93,NE,34,0.0,3.0,67,0.00,,OVC090,0.00,VWS V14.00,2013-05-07 21:53:00,
2013-05-07 16:58:00,72.1,56.5,29.93,NE,34,0.0,1.0,58,0.00,,OVC090,0.00,VWS V14.00,2013-05-07 21:58:00,
2013-05-07 17:03:00,72.2,59.4,29.93,NE,34,0.0,1.0,64,0.00,,OVC090,0.00,VWS V14.00,2013-05-07 22:03:00,
2013-05-07 17:09:00,72.4,60.8,29.93,NE,34,0.0,1.0,67,0.00,,OVC090,0.00,VWS V14.00,2013-05-07 22:09:00,
2013-05-07 17:14:00,72.4,57.8,29.93,NE,34,0.0,1.0,60,0.00,,OVC090,0.00,VWS V14.00,2013-05-07 22:14:00,
2013-05-07 17:19:00,72.5,58.3,29.93,NE,34,0.0,1.0,61,0.00,,OVC090,0.00,VWS V14.00,2013-05-07 22:19:00,
2013-05-07 17:24:00,72.7,60.7,29.93,NE,34,0.0,0.0,66,0.00,,BKN100,0.00,VWS V14.00,2013-05-07 22:24:00,
2013-05-07 17:29:00,72.9,61.3,29.93,NE,34,0.0,1.0,67,0.00,,BKN100,0.00,VWS V14.00,2013-05-07 22:29:00,
2013-05-07 17:30:00,72.6,58.8,29.93,NE,34,0.0,1.0,62,0.00,,OVC003,0.00,VWS V14.00,2013-05-07 22:30:00,
2013-05-07 17:34:00,73.0,58.3,29.93,NE,34,0.0,1.0,60,0.00,,BKN100,0.00,VWS V14.00,2013-05-07 22:34:00,
2013-05-07 17:39:00,72.8,60.8,29.93,NE,34,2.0,3.0,66,0.00,,SCT110,0.00,VWS V14.00,2013-05-07 22:39:00,
2013-05-07 17:44:00,72.4,60.8,29.93,NE,34,2.0,3.0,67,0.00,,SCT110,0.00,VWS V14.00,2013-05-07 22:44:00,
2013-05-07 17:49:00,72.6,60.6,29.92,NE,34,1.0,3.0,66,0.00,,SCT110,0.00,VWS V14.00,2013-05-07 22:49:00,
2013-05-07 17:54:00,72.8,60.8,29.92,NE,34,0.0,2.0,66,0.00,,SCT110,0.00,VWS V14.00,2013-05-07 22:54:00,
2013-05-07 17:59:00,72.8,58.6,29.92,NE,34,0.0,3.0,61,0.00,,SCT110,0.00,VWS V14.00,2013-05-07 22:59:00,
2013-05-07 18:00:00,72.7,59.4,29.92,NE,34,0.0,3.0,63,0.00,,OVC003,0.00,VWS V14.00,2013-05-07 23:00:00,
2013-05-07 18:04:00,72.7,59.8,29.93,NE,34,0.0,3.0,64,0.00,,SCT110,0.00,VWS V14.00,2013-05-07 23:04:00,
2013-05-07 18:09:00,72.2,57.1,29.92,NNW,330,3.0,4.0,59,0.00,,SCT110,0.00,VWS V14.00,2013-05-07 23:09:00,
2013-05-07 18:14:00,72.1,57.9,29.92,NNW,330,1.0,4.0,61,0.00,,SCT110,0.00,VWS V14.00,2013-05-07 23:14:00,
2013-05-07 18:19:00,71.9,56.3,29.92,NNW,330,0.0,4.0,58,0.00,,SCT120,0.00,VWS V14.00,2013-05-07 23:19:00,
2013-05-07 18:24:00,71.9,59.1,29.92,NNW,330,0.0,1.0,64,0.00,,SCT120,0.00,VWS V14.00,2013-05-07 23:24:00,
2013-05-07 18:29:00,71.9,57.3,29.92,NNW,330,0.0,2.0,60,0.00,,SCT120,0.00,VWS V14.00,2013-05-07 23:29:00,
2013-05-07 18:30:00,71.9,59.1,29.92,NNW,330,0.0,4.0,64,0.00,,OVC003,0.00,VWS V14.00,2013-05-07 23:30:00,
2013-05-07 18:34:00,72.2,57.1,29.92,NNW,331,1.0,4.0,59,0.00,,SCT120,0.00,VWS V14.00,2013-05-07 23:34:00,
2013-05-07 18:39:00,72.7,57.6,29.93,NNW,331,2.0,4.0,59,0.00,,SCT110,0.00,VWS V14.00,2013-05-07 23:39:00,
2013-05-07 18:44:00,73.1,58.4,29.93,NNW,331,0.0,4.0,60,0.00,,SCT110,0.00,VWS V14.00,2013-05-07 23:44:00,
2013-05-07 18:49:00,73.3,57.2,29.93,NW,309,0.0,5.0,57,0.00,,SCT110,0.00,VWS V14.00,2013-05-07 23:49:00,
2013-05-07 18:54:00,73.2,56.6,29.93,NW,310,0.0,3.0,56,0.00,,SCT110,0.00,VWS V14.00,2013-05-07 23:54:00,
2013-05-07 18:59:00,72.9,57.8,29.93,NW,308,5.0,6.0,59,0.00,,SCT110,0.00,VWS V14.00,2013-05-07 23:59:00,
2013-05-07 19:00:00,73.3,56.7,29.93,NW,309,1.0,5.0,56,0.00,,OVC003,0.00,VWS V14.00,2013-05-08 00:00:00,
2013-05-07 19:04:00,71.7,58.9,29.93,West,281,4.0,6.0,64,0.00,,CLR,0.00,VWS V14.00,2013-05-08 00:04:00,
2013-05-07 19:09:00,70.9,58.6,29.93,West,281,2.0,6.0,65,0.00,,CLR,0.00,VWS V14.00,2013-05-08 00:09:00,
2013-05-07 19:14:00,70.2,58.7,29.93,WNW,283,2.0,6.0,67,0.00,,CLR,0.00,VWS V14.00,2013-05-08 00:14:00,
2013-05-07 19:19:00,69.6,59.0,29.93,West,263,2.0,7.0,69,0.00,,CLR,0.00,VWS V14.00,2013-05-08 00:19:00,
2013-05-07 19:24:00,68.9,59.1,29.93,West,268,4.0,6.0,71,0.00,,CLR,0.00,VWS V14.00,2013-05-08 00:24:00,
2013-05-07 19:29:00,68.7,59.3,29.93,West,268,3.0,6.0,72,0.00,,CLR,0.00,VWS V14.00,2013-05-08 00:29:00,
2013-05-07 19:30:00,69.3,59.1,29.93,West,265,5.0,7.0,70,0.00,,OVC003,0.00,VWS V14.00,2013-05-08 00:30:00,
2013-05-07 19:34:00,68.2,58.8,29.93,West,268,1.0,6.0,72,0.00,,CLR,0.00,VWS V14.00,2013-05-08 00:34:00,
2013-05-07 19:39:00,67.8,58.5,29.93,West,268,0.0,6.0,72,0.00,,CLR,0.00,VWS V14.00,2013-05-08 00:39:00,
2013-05-07 19:44:00,67.6,58.3,29.93,West,269,0.0,6.0,72,0.00,,CLR,0.00,VWS V14.00,2013-05-08 00:44:00,
2013-05-07 19:49:00,67.2,58.6,29.94,West,269,2.0,6.0,74,0.00,,CLR,0.00,VWS V14.00,2013-05-08 00:49:00,
2013-05-07 19:54:00,66.7,58.5,29.94,West,269,1.0,2.0,75,0.00,,CLR,0.00,VWS V14.00,2013-05-08 00:54:00,
2013-05-07 19:59:00,66.2,58.0,29.94,West,269,0.0,3.0,75,0.00,,CLR,0.00,VWS V14.00,2013-05-08 00:59:00,
2013-05-07 20:00:00,67.0,58.8,29.94,West,269,2.0,6.0,75,0.00,,OVC003,0.00,VWS V14.00,2013-05-08 01:00:00,
2013-05-07 20:04:00,65.8,58.4,29.94,West,269,3.0,4.0,77,0.00,,CLR,0.00,VWS V14.00,2013-05-08 01:04:00,
2013-05-07 20:09:00,65.2,58.2,29.94,West,269,1.0,4.0,78,0.00,,CLR,0.00,VWS V14.00,2013-05-08 01:09:00,
2013-05-07 20:14:00,64.7,58.0,29.94,West,269,0.0,4.0,79,0.00,,CLR,0.00,VWS V14.00,2013-05-08 01:14:00,
2013-05-07 20:19:00,64.1,58.2,29.94,West,269,3.0,4.0,81,0.00,,SCT110,0.00,VWS V14.00,2013-05-08 01:19:00,
2013-05-07 20:24:00,63.7,58.1,29.94,West,269,1.0,4.0,82,0.00,,SCT110,0.00,VWS V14.00,2013-05-08 01:24:00,
2013-05-07 20:29:00,63.6,58.0,29.94,West,271,2.0,5.0,82,0.00,,SCT110,0.00,VWS V14.00,2013-05-08 01:29:00,
2013-05-07 20:30:00,63.9,58.0,29.94,West,269,2.0,4.0,81,0.00,,OVC003,0.00,VWS V14.00,2013-05-08 01:30:00,
2013-05-07 20:34:00,63.4,58.2,29.94,West,271,2.0,5.0,83,0.00,,SCT110,0.00,VWS V14.00,2013-05-08 01:34:00,
2013-05-07 20:39:00,63.2,58.0,29.94,West,271,0.0,5.0,83,0.00,,CLR,0.00,VWS V14.00,2013-05-08 01:39:00,
2013-05-07 20:44:00,62.9,57.7,29.94,West,271,0.0,5.0,83,0.00,,CLR,0.00,VWS V14.00,2013-05-08 01:44:00,
2013-05-07 20:49:00,62.5,57.6,29.95,West,271,1.0,5.0,84,0.00,,CLR,0.00,VWS V14.00,2013-05-08 01:49:00,
2013-05-07 20:54:00,62.1,57.5,29.95,West,271,2.0,3.0,85,0.00,,CLR,0.00,VWS V14.00,2013-05-08 01:54:00,
2013-05-07 20:59:00,61.7,57.5,29.95,West,271,1.0,3.0,86,0.00,,CLR,0.00,VWS V14.00,2013-05-08 01:59:00,
2013-05-07 21:00:00,62.4,57.5,29.95,West,271,1.0,5.0,84,0.00,,OVC003,0.00,VWS V14.00,2013-05-08 02:00:00,
2013-05-07 21:04:00,61.4,57.2,29.95,West,271,2.0,3.0,86,0.00,,CLR,0.00,VWS V14.00,2013-05-08 02:04:00,
2013-05-07 21:09:00,61.1,57.2,29.95,West,271,0.0,3.0,87,0.00,,CLR,0.00,VWS V14.00,2013-05-08 02:09:00,
2013-05-07 21:14:00,60.9,57.0,29.95,West,271,0.0,3.0,87,0.00,,CLR,0.00,VWS V14.00,2013-05-08 02:14:00,
2013-05-07 21:19:00,60.7,56.8,29.95,West,271,0.0,3.0,87,0.00,,CLR,0.00,VWS V14.00,2013-05-08 02:19:00,
2013-05-07 21:24:00,60.5,56.6,29.95,West,271,0.0,0.0,87,0.00,,CLR,0.00,VWS V14.00,2013-05-08 02:24:00,
2013-05-07 21:29:00,60.3,56.7,29.95,West,271,0.0,0.0,88,0.00,,CLR,0.00,VWS V14.00,2013-05-08 02:29:00,
2013-05-07 21:30:00,60.6,56.7,29.95,West,271,0.0,3.0,87,0.00,,OVC003,0.00,VWS V14.00,2013-05-08 02:30:00,
2013-05-07 21:34:00,60.2,57.0,29.95,West,271,0.0,0.0,89,0.00,,CLR,0.00,VWS V14.00,2013-05-08 02:34:00,
2013-05-07 21:39:00,59.9,56.7,29.95,West,271,0.0,0.0,89,0.00,,CLR,0.00,VWS V14.00,2013-05-08 02:39:00,
2013-05-07 21:44:00,59.7,56.8,29.95,West,271,0.0,0.0,90,0.00,,CLR,0.00,VWS V14.00,2013-05-08 02:44:00,
2013-05-07 21:49:00,59.4,56.5,29.95,West,271,0.0,0.0,90,0.00,,CLR,0.00,VWS V14.00,2013-05-08 02:49:00,
2013-05-07 21:54:00,59.2,56.6,29.95,West,271,0.0,0.0,91,0.00,,CLR,0.00,VWS V14.00,2013-05-08 02:54:00,
2013-05-07 21:59:00,59.0,56.4,29.96,West,271,0.0,0.0,91,0.00,,CLR,0.00,VWS V14.00,2013-05-08 02:59:00,
2013-05-07 22:00:00,59.3,56.7,29.95,West,271,0.0,0.0,91,0.00,,OVC003,0.00,VWS V14.00,2013-05-08 03:00:00,
2013-05-07 22:04:00,58.8,56.2,29.96,West,271,0.0,0.0,91,0.00,,CLR,0.00,VWS V14.00,2013-05-08 03:04:00,
2013-05-07 22:09:00,58.7,56.1,29.96,West,271,0.0,0.0,91,0.00,,CLR,0.00,VWS V14.00,2013-05-08 03:09:00,
2013-05-07 22:14:00,58.6,56.0,29.96,West,271,0.0,0.0,91,0.00,,CLR,0.00,VWS V14.00,2013-05-08 03:14:00,
2013-05-07 22:19:00,58.4,55.8,29.96,West,271,0.0,0.0,91,0.00,,CLR,0.00,VWS V14.00,2013-05-08 03:19:00,
2013-05-07 22:24:00,58.2,55.9,29.96,West,271,0.0,0.0,92,0.00,,CLR,0.00,VWS V14.00,2013-05-08 03:24:00,
2013-05-07 22:29:00,58.0,55.7,29.96,West,271,0.0,0.0,92,0.00,,CLR,0.00,VWS V14.00,2013-05-08 03:29:00,
2013-05-07 22:30:00,58.3,56.0,29.96,West,271,0.0,0.0,92,0.00,,OVC003,0.00,VWS V14.00,2013-05-08 03:30:00,
2013-05-07 22:34:00,57.8,55.5,29.96,West,271,0.0,0.0,92,0.00,,CLR,0.00,VWS V14.00,2013-05-08 03:34:00,
2013-05-07 22:38:00,57.7,55.4,29.96,West,271,0.0,0.0,92,0.00,,CLR,0.00,VWS V14.00,2013-05-08 03:38:00,
2013-05-07 22:43:00,57.5,55.2,29.96,West,271,0.0,0.0,92,0.00,,CLR,0.00,VWS V14.00,2013-05-08 03:43:00,
2013-05-07 22:48:00,57.3,55.0,29.96,West,271,0.0,0.0,92,0.00,,CLR,0.00,VWS V14.00,2013-05-08 03:48:00,
2013-05-07 22:53:00,57.0,55.0,29.96,West,271,0.0,0.0,93,0.00,,CLR,0.00,VWS V14.00,2013-05-08 03:53:00,
2013-05-07 22:58:00,56.8,54.8,29.95,West,271,0.0,0.0,93,0.00,,CLR,0.00,VWS V14.00,2013-05-08 03:58:00,
2013-05-07 23:00:00,57.1,55.1,29.96,West,271,0.0,0.0,93,0.00,,OVC003,0.00,VWS V14.00,2013-05-08 04:00:00,
2013-05-07 23:01:00,56.7,54.7,29.95,West,271,0.0,0.0,93,0.00,,CLR,0.00,VWS V14.00,2013-05-08 04:01:00,
2013-05-07 23:06:00,56.6,54.6,29.95,West,271,0.0,0.0,93,0.00,,CLR,0.00,VWS V14.00,2013-05-08 04:06:00,
2013-05-07 23:11:00,56.5,54.5,29.95,West,271,0.0,0.0,93,0.00,,CLR,0.00,VWS V14.00,2013-05-08 04:11:00,
2013-05-07 23:16:00,56.4,54.4,29.96,West,271,0.0,0.0,93,0.00,,CLR,0.00,VWS V14.00,2013-05-08 04:16:00,
2013-05-07 23:21:00,56.3,54.3,29.96,West,271,0.0,0.0,93,0.00,,CLR,0.00,VWS V14.00,2013-05-08 04:21:00,
2013-05-07 23:26:00,56.3,54.6,29.96,West,271,0.0,0.0,94,0.00,,CLR,0.00,VWS V14.00,2013-05-08 04:26:00,
2013-05-07 23:30:00,56.4,54.4,29.96,West,271,0.0,0.0,93,0.00,,OVC003,0.00,VWS V14.00,2013-05-08 04:30:00,
2013-05-07 23:31:00,56.1,54.4,29.95,West,271,0.0,0.0,94,0.00,,CLR,0.00,VWS V14.00,2013-05-08 04:31:00,
2013-05-07 23:36:00,56.0,54.3,29.95,West,271,0.0,0.0,94,0.00,,CLR,0.00,VWS V14.00,2013-05-08 04:36:00,
2013-05-07 23:41:00,55.8,53.8,29.96,West,271,0.0,0.0,93,0.00,,CLR,0.00,VWS V14.00,2013-05-08 04:41:00,
2013-05-07 23:46:00,55.7,54.0,29.96,West,271,0.0,0.0,94,0.00,,CLR,0.00,VWS V14.00,2013-05-08 04:46:00,
2013-05-07 23:50:00,55.7,54.0,29.95,West,271,0.0,0.0,94,0.00,,CLR,0.00,VWS V14.00,2013-05-08 04:50:00,
2013-05-07 23:55:00,55.7,54.0,29.95,West,271,0.0,0.0,94,0.00,,CLR,0.00,VWS V14.00,2013-05-08 04:55:00,